Voltar ao catálogo

COSMOS 2491 DEB

AtivoPO
NORAD 57554·DEBRIS·🇷🇺 Russia

Lançado Dec 25, 2013 de Plesetsk Cosmodrome

Loading…

Próximas Passagens (próximas 24 horas)

TLE

EnvelhecendoSource: Space-Track

Época: Sep 6, 2026, 07:29 UTC

1 57554U 13076AR  26249.31224050  .00000604  00000-0  38950-2 0  9990
2 57554  82.4812 106.2697 0025311  29.3905 330.8596 12.50203180151692

Acompanhe COSMOS 2491 DEB em tempo real com AllMySat

Download on the App Store